Location: Newark
(48.3983°N, 16.0611°E)
Time: 00:58:01
(UTC+00:00)

ISS - Pass Details

Date: 22 January 2020
Orbit: 416 x 422 km, 51.6° (Epoch: 21 February)

Event Time Altitude Azimuth Distance (km) Brightness Sun altitude
Rises 17:19:05 0° 220° (SW) 2,368 0.9 -16.5°
Reaches altitude 10° 17:21:17 10° 211° (SSW) 1,506 -0.4 -16.9°
Maximum altitude 17:24:22 33° 145° (SE) 733 -2.8 -17.4°
Enters shadow 17:24:34 33° 137° (SE) 739 -2.8 -17.4°
